Regional Weather Roundup
Issued by NWS

Home | Current Version | Previous Version | Graphics & Text | Print | Product List | Glossary On
Versions: 1 2 3 4 5 6 7 8 9 10 11 12 13 14 15 16 17 18 19 20 21 22 23 24 25 26 27 28 29 30 31 32 33 34 35 36 37 38 39 40 41 42 43 44 45 46 47 48 49 50
000
ASUS43 KBIS 270102
RWRND

NORTH DAKOTA REGIONAL WEATHER ROUNDUP
NATIONAL WEATHER SERVICE BISMARCK ND
800 PM CDT THU MAY 26 2016

NOTE: "FAIR" INDICATES FEW OR NO CLOUDS BELOW 12,000 FEET WITH NO
SIGNIFICANT WEATHER AND/OR OBSTRUCTIONS TO VISIBILITY.


NDZ001>003-009>011-017-270200-
NORTHWEST NORTH DAKOTA

CITY           SKY/WX    TMP DP  RH WIND       PRES   REMARKS
WILLISTON      CLOUDY    63  50  62 N16G24    29.81R
MINOT          CLOUDY    60  49  66 W10       29.81R
MINOT AFB      CLOUDY    60  53  76 NE8       29.80R
$$

NDZ018>021-031>035-040>046-270200-
SOUTHWEST NORTH DAKOTA

CITY           SKY/WX    TMP DP  RH WIND       PRES   REMARKS
BISMARCK       MOSUNNY   68  48  48 N12       29.75S
DICKINSON      MOSUNNY   60  41  49 W14       29.79S
GARRISON         N/A     61  50  67 N17G23    29.79R
HETTINGER ARPT SUNNY     57  43  59 NW14      29.83S
$$

NDZ004>008-012>016-024-026-027-054-270200-
NORTHEAST NORTH DAKOTA

CITY           SKY/WX    TMP DP  RH WIND       PRES   REMARKS
GRAND FORKS    MOSUNNY   68  54  60 NW12      29.71S
GRND FRKS AFB  SUNNY     67  54  62 NW9       29.71F
DEVILS LAKE    MOSUNNY   61  53  75 N9        29.78R
$$

NDZ022-023-025-028>030-036>039-047>053-270200-
SOUTHEAST NORTH DAKOTA

CITY           SKY/WX    TMP DP  RH WIND       PRES   REMARKS
FARGO          CLEAR     76  53  44 N3        29.75R
JAMESTOWN      SUNNY     70  48  45 W9        29.71S
$$





USA.gov is the U.S. government's official web portal to all federal, state and local government web resources and services.